Tracking 22881 objects as of 19-Apr-2021
HD Live streaming from Space Station
objects crossing your sky now

STARLINK-1541

Track STARLINK-1541 now!
10-day predictions
STARLINK-1541 is classified as:


NORAD ID: 46052
Int'l Code: 2020-055AB
Perigee: 553.4 km
Apogee: 555.4 km
Inclination: 53.1 °
Period: 95.6 minutes
Semi major axis: 6925 km
RCS: Unknown
Launch date: August 7, 2020
Source: United States (US)
Launch site: AIR FORCE EASTERN TEST RANGE (AFETR)
aabbcc
Your satellite tracking list
Your tracking list is empty




NASA's NSSDC Master Catalog

Two Line Element Set (TLE):
1 46052U 20055AB  21109.42301494 -.00000851  00000-0 -38252-4 0  9999
2 46052  53.0555 210.9983 0001475 132.8887 227.2226 15.06388646 39437
Source of the keplerian elements: AFSPC